[[{"header":{"parameterUnit":"m.s-1","parameterCategory":2,"la1":30.2991,"la2":30.254,"lo1":-89.0895,"lo2":-89.0444,"dy":0.0017,"dx":0.0017,"nx":28,"ny":28,"refTime":"2023-09-18T09:00:00:Z","depth":"0","parameterNumber":2,"parameterNumberName":"U-component_of_CURRENTS"},"data":[0,0,0,0,0,0,0,0,0,0,0,0,0,0,0,0,0,0,0,0,0,0,0,0,0,0,0,0,0,0,0,0,0,0,0,0,0,0,0,0,0,0,0,0,0,0,0,0,0,0,0,0,0,0,0,0,0,0,0.177,0.177,0,0.1761,0.1761,0.176,0.1735,0.1735,0.1734,0.1734,0.1712,0.1712,0.1711,0,0,0,0,0,0,0,0,0,0,0,0,0,0.1763,0.1763,0.177,0.177,0.177,0.1761,0.1761,0.176,0.1735,0.1734,0.1734,0.1734,0.1712,0.1712,0.1711,0,0,0,0,0,0,0,0,0,0,0,0,0,0.1759,0.1763,0.177,0.1758,0.1757,0.1761,0.1761,0.176,0.1735,0.1734,0.1734,0.1733,0.1712,0.1712,0.1711,0.1719,0,0,0.171,0.171,0,0,0,0,0,0,0,0,0.176,0.1759,0.176,0.1759,0.1758,0.1751,0.175,0.1747,0.1735,0.1741,0.1734,0.1733,0.1725,0.1724,0.172,0.1718,0.1717,0.171,0.171,0.171,0.1709,0,0,0,0,0,0,0,0.176,0.176,0.1764,0.176,0.1759,0.1753,0.1751,0.1749,0.1734,0.174,0.1739,0.1742,0.1724,0.1721,0.172,0.1717,0.171,0.171,0.1709,0.1709,0.1729,0.1729,0,0,0,0,0,0,0.1766,0.176,0.1764,0.1764,0.176,0.1753,0.1752,0.1752,0.1734,0.1732,0.1742,0.1741,0.1722,0.172,0.1719,0.1739,0.171,0.1709,0.1709,0.1728,0.1729,0.173,0,0,0,0,0,0,0.1766,0.1767,0.1765,0.1764,0.1763,0.1754,0.1754,0.1752,0.1751,0.1737,0.1733,0.1745,0.1721,0.1719,0.1722,0.1738,0.1709,0.1709,0.1727,0.1728,0.1729,0.1772,0,0,0,0,0,0,0.1766,0.1767,0.1771,0.1764,0.1764,0.1775,0.1755,0.1752,0.1755,0.1752,0.1738,0.1735,0.1721,0.1723,0.1722,0.1736,0.1708,0.1726,0.1728,0.1729,0.177,0.1775,0.1779,0,0,0,0,0,0.1766,0.1775,0.1771,0.1772,0.1769,0.1776,0.1776,0.1766,0.1755,0.1762,0.1749,0.1735,0.1731,0.1723,0.1722,0.1737,0.1725,0.1727,0.1729,0.1768,0.1774,0.1779,0,0,0,0,0,0,0.1771,0.1773,0.1768,0.1776,0.178,0.1773,0.178,0.1772,0.1767,0.1764,0.1745,0.1742,0.1751,0.1739,0.1731,0.1747,0.1726,0.1728,0.1757,0.1762,0.1767,0.1775,0.1708,0,0,0,0,0,0.1776,0.1783,0.1784,0.179,0.1795,0.1788,0.1791,0.1785,0.1781,0.1777,0.1766,0.1757,0.1757,0.1755,0.1752,0.1761,0.1767,0.177,0.1774,0.1778,0.1784,0.1811,0.1819,0.1735,0.1735,0.1735,0,0,0.1778,0.1782,0.1784,0.1793,0.1793,0.1801,0.1788,0.1797,0.1801,0.1777,0.1779,0.1774,0.1764,0.1773,0.1776,0.1764,0.1807,0.178,0.1784,0.1787,0.1814,0.1822,0.1829,0.1736,0.1736,0.1736,0,0,0.1787,0.1793,0.1801,0.1808,0.1817,0.1817,0.1823,0.1821,0.182,0.1824,0.181,0.1818,0.1808,0.1809,0.1807,0.1836,0.1831,0.1833,0.186,0.1887,0.1894,0.19,0.1927,0.1936,0.1833,0.1833,0.1833,0,0.1789,0.1798,0.1805,0.1815,0.1823,0.1826,0.1836,0.1839,0.1837,0.1841,0.183,0.1835,0.1827,0.1845,0.1854,0.1847,0.186,0.184,0.1893,0.19,0.1906,0.1932,0.194,0.1835,0.1835,0.1835,0.1835,0,0.18,0.1809,0.1818,0.183,0.1842,0.1855,0.1863,0.1873,0.1872,0.1872,0.189,0.1885,0.1888,0.189,0.188,0.1918,0.1914,0.1899,0.1881,0.1917,0.1942,0.195,0.1839,0.1838,0.1837,0.1837,0,0,0.1786,0.182,0.1819,0.1827,0.1852,0.1858,0.1882,0.19,0.1916,0.1917,0.1938,0.1943,0.1945,0.1943,0.1938,0.196,0.2016,0.195,0.195,0.1979,0.2081,0.2049,0.2055,0.2011,0.2012,0.2014,0.2084,0,0.1788,0.181,0.1828,0.1845,0.1857,0.1878,0.1899,0.1917,0.1935,0.1959,0.1966,0.1983,0.1963,0.1974,0.1994,0.2011,0.2039,0.1999,0.2039,0.204,0.201,0.2064,0.1936,0.1985,0.2092,0.2094,0.2095,0,0.1779,0.18,0.1819,0.1854,0.1861,0.1874,0.1913,0.1932,0.1975,0.1994,0.202,0.2027,0.2062,0.204,0.2091,0.2067,0.2081,0.2091,0.2094,0.2055,0.2024,0.1965,0.1996,0.1949,0.2108,0.2106,0.2106,0,0.1748,0.1785,0.1801,0.1811,0.1855,0.1868,0.1893,0.1937,0.1955,0.2021,0.2039,0.2085,0.2101,0.2134,0.2148,0.2129,0.2206,0.2179,0.2166,0.2164,0.2057,0.2043,0.2047,0.2224,0.2224,0.2223,0.2223,0,0.1731,0.1739,0.1787,0.179,0.181,0.1851,0.1876,0.1916,0.1971,0.1999,0.2048,0.2079,0.2125,0.2162,0.218,0.2203,0.2232,0.2188,0.2185,0.2069,0.2055,0.201,0.1974,0.2226,0.2226,0.2225,0.2225,0,0.168,0.1714,0.1729,0.1778,0.1789,0.1799,0.1846,0.1873,0.1934,0.1976,0.1997,0.2079,0.2145,0.2183,0.2248,0.2232,0.2194,0.2264,0.2127,0.2107,0.2037,0.2008,0.1949,0.1882,0.2267,0.2266,0.2266,0,0.1656,0.1662,0.17,0.1705,0.1723,0.1748,0.177,0.1841,0.1874,0.1969,0.1989,0.2072,0.211,0.2197,0.2214,0.2252,0.2186,0.215,0.2088,0.2033,0.1999,0.193,0.1873,0.1969,0.1966,0.1964,0.1962,0,0.1613,0.1625,0.164,0.1651,0.1668,0.1682,0.1722,0.1737,0.1828,0.1864,0.1933,0.1973,0.2068,0.2057,0.2113,0.212,0.2023,0.2107,0.2079,0.1797,0.1691,0.1625,0.1933,0.1943,0.1945,0.1946,0.1947,0.1948,0.1576,0.1571,0.1589,0.1589,0.1605,0.1606,0.1592,0.1646,0.1671,0.1708,0.182,0.1841,0.1893,0.1955,0.1958,0.19,0.1906,0.1823,0.1805,0.1752,0.1639,0.1915,0.1903,0.1904,0.1906,0.1907,0.1908,0,0.1524,0.1524,0.1527,0.1519,0.1502,0.1533,0.1549,0.1525,0.1519,0.1593,0.1626,0.1655,0.1644,0.17,0.1686,0.1603,0.1521,0.1555,0.1417,0.1386,0.1656,0.1594,0.1478,0.1478,0.1478,0.1478,0.1478,0.1478,0.15,0.1476,0.1471,0.1414,0.1405,0.1355,0.1341,0.1323,0.135,0.1344,0.136,0.1405,0.15,0.1501,0.1443,0.1395,0.1278,0.1188,0.1226,0.1407,0.143,0.1452,0.1388,0.123,0.123,0.0872,0.0869,0.0867]},{"header":{"parameterUnit":"m.s-1","parameterCategory":2,"la1":30.2991,"la2":30.254,"lo1":-89.0895,"lo2":-89.0444,"dy":0.0017,"dx":0.0017,"nx":28,"ny":28,"refTime":"2023-09-18T09:00:00:Z","depth":"0","parameterNumber":3,"parameterNumberName":"V-component_of_CURRENTS"},"data":[0,0,0,0,0,0,0,0,0,0,0,0,0,0,0,0,0,0,0,0,0,0,0,0,0,0,0,0,0,0,0,0,0,0,0,0,0,0,0,0,0,0,0,0,0,0,0,0,0,0,0,0,0,0,0,0,0,0,0.0051,0.0051,0,0.0022,0.0022,0.0021,-0.0002,-0.0002,-0.0002,-0.0002,-0.0061,-0.0063,-0.0064,0,0,0,0,0,0,0,0,0,0,0,0,0,0.0065,0.0065,0.0051,0.0051,0.0051,0.0022,0.0022,0.0021,-0.0002,-0.0002,-0.0002,-0.0002,-0.0061,-0.0062,-0.0064,0,0,0,0,0,0,0,0,0,0,0,0,0,0.0049,0.0065,0.0052,0.0037,0.0035,0.0022,0.0022,0.0021,-0.0002,-0.0002,-0.0002,-0.0002,-0.006,-0.0062,-0.0064,-0.0074,0,0,-0.0071,-0.0072,0,0,0,0,0,0,0,0,0.005,0.0048,0.0039,0.0038,0.0036,0.0014,0.0005,-0.0012,-0.0002,0.0011,-0.0002,-0.0002,-0.0038,-0.0042,-0.0048,-0.0077,-0.0079,-0.0071,-0.0073,-0.0074,-0.0074,0,0,0,0,0,0,0,0.0051,0.0049,0.0039,0.0039,0.0037,0.0024,0.0021,0.0001,-0.0013,0.001,0.0009,0.0007,-0.0039,-0.0046,-0.005,-0.008,-0.0071,-0.0073,-0.0075,-0.0075,-0.011,-0.011,0,0,0,0,0,0,0.0058,0.0051,0.004,0.0038,0.0044,0.0024,0.0021,0.0021,-0.0012,-0.0017,0.0007,0.0006,-0.0042,-0.0047,-0.0052,-0.0053,-0.0074,-0.0076,-0.0077,-0.011,-0.011,-0.0109,0,0,0,0,0,0,0.0058,0.0057,0.0041,0.0044,0.0041,0.0024,0.0024,0.002,0.0015,-0.0014,-0.002,0.0006,-0.0042,-0.0049,-0.0062,-0.0056,-0.0077,-0.0079,-0.0111,-0.011,-0.011,-0.0062,0,0,0,0,0,0,0.0059,0.0058,0.0059,0.0045,0.0041,0.0039,0.0024,0.002,0.0015,0.0013,-0.0017,-0.0023,-0.0043,-0.0058,-0.0064,-0.0059,-0.008,-0.0111,-0.0111,-0.011,-0.0064,-0.006,-0.0056,0,0,0,0,0,0.006,0.0066,0.006,0.0058,0.0044,0.0039,0.0036,0.0022,0.0015,0.0017,-0.0001,-0.0022,-0.0058,-0.006,-0.0066,-0.0062,-0.0112,-0.0111,-0.011,-0.0066,-0.0061,-0.0057,0,0,0,0,0,0,0.0073,0.0064,0.0057,0.006,0.0052,0.0036,0.0036,0.0026,0.0013,0.0011,-0.0017,-0.0024,-0.0034,-0.0053,-0.0055,-0.0069,-0.0088,-0.0088,-0.0052,-0.0048,-0.0044,-0.0029,-0.0082,0,0,0,0,0,0.0077,0.008,0.0067,0.007,0.0068,0.0052,0.0048,0.0039,0.0026,0.002,0.0,-0.002,-0.0036,-0.0045,-0.0064,-0.0072,-0.0088,-0.0073,-0.0069,-0.0066,-0.0058,-0.0076,-0.0072,-0.0107,-0.0107,-0.0107,0,0,0.0083,0.0079,0.008,0.0073,0.0065,0.007,0.0049,0.0047,0.0052,0.0016,0.0014,-0.0009,-0.0035,-0.0043,-0.0049,-0.0058,-0.0064,-0.0065,-0.0062,-0.0055,-0.0074,-0.0071,-0.0068,-0.0106,-0.0106,-0.0106,0,0,0.0102,0.0093,0.0103,0.0098,0.0091,0.0084,0.0086,0.0073,0.0066,0.006,0.0037,0.0023,-0.0004,-0.0018,-0.0029,-0.0015,-0.0044,-0.0025,0.0008,-0.0009,-0.0006,-0.0004,-0.0016,-0.0015,-0.0021,-0.0021,-0.0021,0,0.011,0.012,0.0105,0.0112,0.0116,0.0095,0.011,0.01,0.0084,0.0083,0.0066,0.0036,0.001,0.0008,0.0011,-0.0005,-0.0019,-0.0007,-0.0003,-0.0001,0.0,-0.0013,-0.0013,-0.0019,-0.0019,-0.0019,-0.0019,0,0.0135,0.0142,0.0148,0.0154,0.0156,0.0163,0.0153,0.015,0.0139,0.0129,0.0119,0.0085,0.007,0.0057,0.0037,0.0037,0.0023,0.0003,-0.0013,0.0006,-0.0008,-0.0009,-0.0015,-0.0016,-0.0017,-0.0017,0,0,0.0161,0.0165,0.0169,0.0181,0.0179,0.0188,0.0195,0.0199,0.0212,0.0183,0.0195,0.0159,0.0138,0.0124,0.0095,0.008,0.0074,0.0049,0.0047,0.0041,0.004,0.0033,0.0031,0.0053,0.0053,0.0053,0.0027,0,0.0188,0.0215,0.0211,0.0244,0.0259,0.0246,0.0257,0.0256,0.0251,0.0254,0.0215,0.021,0.0165,0.0159,0.0135,0.0093,0.0074,0.0083,0.0019,0.0017,0.0011,0.0031,0.0048,0.0026,0.0026,0.0026,0.0026,0,0.022,0.0235,0.0271,0.0294,0.03,0.0314,0.0339,0.0349,0.0342,0.0335,0.0319,0.0286,0.0261,0.0216,0.0153,0.0161,0.0106,0.0067,0.0064,0.0042,0.0009,0.0005,0.0025,-0.0039,0.0025,0.0025,0.0025,0,0.0257,0.0282,0.0315,0.0321,0.034,0.0354,0.0367,0.0374,0.0395,0.0391,0.04,0.0358,0.0345,0.0271,0.0183,0.0168,0.0114,0.0081,0.0022,0.002,0.0015,0.0014,-0.003,0.0033,0.0033,0.0033,0.0033,0,0.0292,0.032,0.0334,0.0352,0.0394,0.0395,0.044,0.0445,0.0464,0.0504,0.0446,0.0465,0.0357,0.0308,0.0214,0.0126,0.0135,0.0036,0.0016,0.0032,0.0033,-0.004,-0.0098,0.0032,0.0032,0.0032,0.0032,0,0.0328,0.0336,0.0377,0.0402,0.0412,0.0446,0.0487,0.0524,0.0531,0.0581,0.0581,0.0551,0.0492,0.0378,0.0271,0.0178,0.0041,0.0046,0.0077,0.006,-0.0059,-0.0115,-0.0189,-0.023,-0.002,-0.0021,-0.0021,0,0.0347,0.0372,0.0415,0.0445,0.0457,0.05,0.0534,0.0556,0.0604,0.0641,0.0674,0.063,0.0612,0.0452,0.0291,0.0134,0.0041,0.0037,0.0005,-0.0053,-0.0131,-0.0162,-0.0193,0.0016,0.0016,0.0016,0.0016,0,0.0387,0.0403,0.0436,0.0492,0.0535,0.0585,0.0636,0.068,0.0722,0.0759,0.0805,0.0791,0.0651,0.051,0.0297,0.0184,-0.0009,0.0033,-0.0036,-0.0109,-0.0137,-0.0189,0.0022,0.0017,0.0017,0.0017,0.0017,0.0017,0.0418,0.0446,0.049,0.0543,0.0594,0.0659,0.0701,0.0766,0.0837,0.0889,0.0894,0.0884,0.0694,0.0412,0.0262,0.0009,-0.0015,-0.0076,-0.0139,-0.0164,-0.0203,0.0014,-0.0011,-0.0011,-0.0011,-0.0011,-0.0011,0,0.0451,0.0483,0.0538,0.0599,0.0654,0.0675,0.0763,0.0805,0.0885,0.094,0.0962,0.0872,0.0638,0.0394,0.0058,-0.0122,-0.0191,-0.0225,-0.0264,-0.029,-0.0097,-0.0094,-0.0127,-0.0126,-0.0126,-0.0126,-0.0126,-0.0126,0.047,0.0521,0.0544,0.063,0.0675,0.0742,0.0788,0.0857,0.0909,0.0952,0.0952,0.0933,0.0769,0.0208,-0.0182,-0.0281,-0.0404,-0.0434,-0.0512,-0.0377,-0.0367,-0.0358,-0.0366,-0.0455,-0.0456,-0.0657,-0.0659,-0.0661]}],[{"header":{"parameterUnit":"m.s-1","parameterCategory":2,"la1":30.2991,"la2":30.254,"lo1":-89.0895,"lo2":-89.0444,"dy":0.0017,"dx":0.0017,"nx":28,"ny":28,"refTime":"2023-09-18T09:00:00:Z","depth":"2","parameterNumber":2,"parameterNumberName":"U-component_of_CURRENTS"},"data":[0,0,0,0,0,0,0,0,0,0,0,0,0,0,0,0,0,0,0,0,0,0,0,0,0,0,0,0,0,0,0,0,0,0,0,0,0,0,0,0,0,0,0,0,0,0,0,0,0,0,0,0,0,0,0,0,0,0,0.1743,0.1743,0,0.1742,0.1742,0.1742,0.1732,0.1732,0.1732,0.1732,0.1732,0.1732,0.1733,0,0,0,0,0,0,0,0,0,0,0,0,0,0.1733,0.1733,0.1743,0.1743,0.1743,0.1742,0.1742,0.1742,0.1732,0.1732,0.1732,0.1732,0.1732,0.1732,0.1733,0,0,0,0,0,0,0,0,0,0,0,0,0,0.1734,0.1733,0.1743,0.1739,0.1739,0.1742,0.1742,0.1742,0.1732,0.1732,0.1732,0.1732,0.1732,0.1732,0.1733,0.1736,0,0,0.1733,0.1733,0,0,0,0,0,0,0,0,0.1734,0.1734,0.174,0.174,0.174,0.1739,0.1739,0.1741,0.1732,0.1733,0.1732,0.1732,0.1736,0.1736,0.1733,0.1736,0.1736,0.1733,0.1733,0.1733,0.1733,0,0,0,0,0,0,0,0.1734,0.1734,0.1741,0.174,0.174,0.1737,0.1737,0.1739,0.1734,0.1733,0.1733,0.1735,0.1735,0.1733,0.1733,0.1736,0.1733,0.1733,0.1733,0.1733,0.1767,0.1768,0,0,0,0,0,0,0.1738,0.1734,0.1741,0.1741,0.1738,0.1738,0.1737,0.1738,0.1734,0.1734,0.1736,0.1735,0.1733,0.1733,0.1733,0.1765,0.1733,0.1733,0.1733,0.1766,0.1767,0.1768,0,0,0,0,0,0,0.1737,0.1738,0.1741,0.1739,0.1739,0.1738,0.1739,0.1738,0.1744,0.1736,0.1736,0.1744,0.1733,0.1733,0.1746,0.1764,0.1733,0.1733,0.1766,0.1767,0.1768,0.181,0,0,0,0,0,0,0.1737,0.1738,0.1744,0.1739,0.174,0.1753,0.1739,0.1738,0.1747,0.1746,0.1743,0.1743,0.1733,0.1746,0.1746,0.1763,0.1734,0.1764,0.1766,0.1768,0.1808,0.1813,0.1817,0,0,0,0,0,0.1736,0.1745,0.1744,0.1745,0.1746,0.1753,0.1754,0.1751,0.1747,0.1755,0.1754,0.1743,0.1755,0.1746,0.1747,0.1765,0.1764,0.1766,0.1767,0.1806,0.1812,0.1817,0,0,0,0,0,0,0.1741,0.1744,0.1744,0.1752,0.1758,0.1753,0.1761,0.1759,0.1763,0.1765,0.1753,0.1753,0.1772,0.1763,0.1753,0.1779,0.1758,0.176,0.1787,0.1793,0.1798,0.1804,0.1734,0,0,0,0,0,0.1747,0.1755,0.1756,0.1765,0.1769,0.1768,0.1772,0.1771,0.1772,0.1774,0.1772,0.1772,0.1778,0.1781,0.1784,0.1798,0.18,0.1809,0.1814,0.1818,0.1823,0.1845,0.1852,0.1774,0.1774,0.1774,0,0,0.175,0.1755,0.1759,0.1767,0.1771,0.1779,0.177,0.1782,0.179,0.1774,0.1789,0.1791,0.1786,0.1802,0.181,0.1798,0.1843,0.182,0.1824,0.1827,0.1847,0.1855,0.1862,0.1776,0.1775,0.1775,0,0,0.176,0.1768,0.1776,0.1784,0.1795,0.1797,0.1804,0.1807,0.1813,0.1826,0.182,0.1834,0.1837,0.184,0.1841,0.1873,0.1868,0.1874,0.1902,0.1923,0.1929,0.1935,0.1954,0.1962,0.1875,0.1875,0.1875,0,0.1764,0.1773,0.1781,0.179,0.18,0.1806,0.1817,0.1825,0.1833,0.1842,0.1837,0.1857,0.1855,0.1877,0.1889,0.1885,0.1895,0.1881,0.1929,0.1935,0.194,0.1958,0.1966,0.1877,0.1877,0.1877,0.1876,0,0.1775,0.1786,0.1794,0.1808,0.1821,0.1834,0.1846,0.1862,0.1871,0.1876,0.1904,0.1906,0.1918,0.1922,0.1916,0.1954,0.1949,0.1935,0.1916,0.1951,0.1968,0.1975,0.188,0.188,0.1879,0.1878,0,0,0.1764,0.1796,0.1796,0.1807,0.1832,0.184,0.1867,0.1889,0.1909,0.1922,0.1949,0.1965,0.1971,0.1974,0.1973,0.1992,0.2041,0.1984,0.1984,0.2004,0.2093,0.2045,0.2048,0.2038,0.2039,0.204,0.2092,0,0.1767,0.1789,0.1805,0.1826,0.1838,0.1861,0.1886,0.1909,0.1933,0.1962,0.1976,0.2003,0.199,0.2007,0.2024,0.2038,0.2061,0.2029,0.2055,0.2056,0.201,0.2054,0.1867,0.1894,0.2099,0.21,0.2101,0,0.176,0.178,0.1801,0.1837,0.1845,0.1863,0.1907,0.1932,0.1977,0.2,0.2031,0.2044,0.2081,0.2064,0.2108,0.209,0.2099,0.2105,0.2107,0.2052,0.202,0.1891,0.1898,0.2112,0.2111,0.211,0.211,0,0.1734,0.177,0.1788,0.18,0.1844,0.1863,0.1894,0.1942,0.1964,0.2033,0.2052,0.2099,0.2119,0.2145,0.2156,0.2143,0.2198,0.2178,0.2143,0.214,0.1979,0.1959,0.2213,0.2213,0.2213,0.2212,0.2212,0,0.1719,0.1731,0.178,0.1787,0.1811,0.1856,0.189,0.1931,0.1989,0.2017,0.207,0.2094,0.2141,0.2169,0.2181,0.2184,0.2219,0.216,0.2154,0.1989,0.197,0.2153,0.2145,0.2214,0.2214,0.2214,0.2213,0,0.1676,0.1709,0.1728,0.178,0.1795,0.1814,0.187,0.1899,0.1964,0.2005,0.2028,0.2098,0.2148,0.218,0.2229,0.2204,0.2222,0.2212,0.2017,0.1987,0.2146,0.214,0.2188,0.2187,0.2186,0.2185,0.2185,0,0.1656,0.1664,0.1706,0.1715,0.1738,0.1774,0.1799,0.1874,0.1907,0.1995,0.2009,0.2081,0.2102,0.2156,0.215,0.2168,0.2214,0.1997,0.1936,0.2157,0.2146,0.2141,0.2137,0.1743,0.1739,0.1735,0.1733,0,0.1618,0.1634,0.1651,0.1667,0.169,0.1709,0.1757,0.177,0.1861,0.1886,0.1935,0.1965,0.2027,0.1956,0.1985,0.1972,0.1982,0.1928,0.2209,0.178,0.1741,0.1729,0.1738,0.1701,0.1705,0.1707,0.1709,0.171,0.1587,0.1585,0.1606,0.1611,0.1633,0.1638,0.1627,0.1676,0.1692,0.1715,0.1805,0.1783,0.1811,0.1759,0.1715,0.1691,0.1836,0.174,0.1749,0.1762,0.1703,0.1664,0.16,0.1602,0.1604,0.1606,0.1608,0,0.154,0.1543,0.1549,0.1547,0.1534,0.157,0.1586,0.1558,0.1537,0.1579,0.1587,0.1458,0.1401,0.1443,0.1353,0.1362,0.1333,0.1308,0.1241,0.1274,0.1302,0.1217,0.0987,0.0985,0.0983,0.0981,0,0,0.1518,0.1498,0.1493,0.1444,0.1442,0.1398,0.1386,0.1355,0.1356,0.1303,0.1268,0.1341,0.1393,0.1165,0.1141,0.1045,0.1152,0.1006,0.1505,0.1459,0.1485,0.1555,0.1462,0,0,0,0,0]},{"header":{"parameterUnit":"m.s-1","parameterCategory":2,"la1":30.2991,"la2":30.254,"lo1":-89.0895,"lo2":-89.0444,"dy":0.0017,"dx":0.0017,"nx":28,"ny":28,"refTime":"2023-09-18T09:00:00:Z","depth":"2","parameterNumber":3,"parameterNumberName":"V-component_of_CURRENTS"},"data":[0,0,0,0,0,0,0,0,0,0,0,0,0,0,0,0,0,0,0,0,0,0,0,0,0,0,0,0,0,0,0,0,0,0,0,0,0,0,0,0,0,0,0,0,0,0,0,0,0,0,0,0,0,0,0,0,0,0,0.0075,0.0074,0,0.0049,0.0049,0.0049,0.0028,0.0028,0.0028,0.0028,-0.0027,-0.0028,-0.003,0,0,0,0,0,0,0,0,0,0,0,0,0,0.0082,0.0082,0.0075,0.0074,0.0074,0.0049,0.0049,0.0049,0.0028,0.0028,0.0028,0.0028,-0.0027,-0.0028,-0.003,0,0,0,0,0,0,0,0,0,0,0,0,0,0.0069,0.0082,0.0075,0.0062,0.006,0.005,0.0049,0.0048,0.0028,0.0028,0.0028,0.0028,-0.0026,-0.0028,-0.003,-0.0038,0,0,-0.0036,-0.0037,0,0,0,0,0,0,0,0,0.007,0.0069,0.0064,0.0062,0.0061,0.0042,0.0032,0.0018,0.0028,0.004,0.0028,0.0028,-0.0006,-0.001,-0.0015,-0.0041,-0.0043,-0.0036,-0.0038,-0.0038,-0.0039,0,0,0,0,0,0,0,0.0071,0.007,0.0064,0.0064,0.0062,0.0049,0.0047,0.0029,0.0017,0.0039,0.0037,0.0036,-0.0007,-0.0013,-0.0016,-0.0044,-0.0036,-0.0038,-0.0039,-0.004,-0.0077,-0.0077,0,0,0,0,0,0,0.0077,0.0071,0.0065,0.0063,0.0066,0.0049,0.0047,0.0048,0.0018,0.0014,0.0036,0.0035,-0.0009,-0.0014,-0.0018,-0.0022,-0.0038,-0.004,-0.0042,-0.0077,-0.0077,-0.0076,0,0,0,0,0,0,0.0078,0.0077,0.0066,0.0067,0.0065,0.005,0.0051,0.0048,0.0043,0.0016,0.0011,0.0034,-0.0009,-0.0015,-0.0028,-0.0025,-0.0041,-0.0043,-0.0077,-0.0077,-0.0077,-0.0035,0,0,0,0,0,0,0.0078,0.0077,0.0079,0.0067,0.0065,0.0064,0.0051,0.0047,0.0042,0.0041,0.0013,0.0008,-0.001,-0.0025,-0.003,-0.0028,-0.0045,-0.0078,-0.0077,-0.0077,-0.0036,-0.0033,-0.003,0,0,0,0,0,0.0078,0.0085,0.008,0.0079,0.0069,0.0064,0.0062,0.005,0.0043,0.0044,0.0027,0.0009,-0.0026,-0.0027,-0.0033,-0.003,-0.0078,-0.0077,-0.0077,-0.0038,-0.0034,-0.003,0,0,0,0,0,0,0.009,0.0083,0.0077,0.0082,0.0075,0.0061,0.0061,0.0053,0.004,0.0038,0.0012,0.0006,-0.0005,-0.0023,-0.0022,-0.004,-0.0055,-0.0056,-0.0024,-0.002,-0.0017,-0.0003,-0.0046,0,0,0,0,0,0.0094,0.0097,0.0087,0.0091,0.0089,0.0075,0.0071,0.0064,0.0052,0.0046,0.0027,0.0008,-0.0008,-0.0017,-0.0035,-0.0044,-0.006,-0.0047,-0.0043,-0.0041,-0.0033,-0.0053,-0.0051,-0.0075,-0.0075,-0.0075,0,0,0.0099,0.0097,0.0098,0.0094,0.0087,0.0091,0.0072,0.007,0.0074,0.0042,0.0038,0.0017,-0.0008,-0.0017,-0.0023,-0.0031,-0.0043,-0.004,-0.0037,-0.0031,-0.0052,-0.005,-0.0048,-0.0074,-0.0074,-0.0075,0,0,0.0116,0.0109,0.0119,0.0115,0.0109,0.0103,0.0105,0.0092,0.0085,0.0079,0.0058,0.0043,0.0017,0.0003,-0.0008,0.0002,-0.0026,-0.0007,0.0021,0.0001,0.0003,0.0005,-0.0013,-0.0013,-0.0005,-0.0005,-0.0005,0,0.0123,0.0133,0.0121,0.0128,0.0131,0.0112,0.0125,0.0116,0.0101,0.0099,0.0084,0.0052,0.0028,0.0023,0.0025,0.001,-0.0006,0.0009,0.0006,0.0007,0.0008,-0.001,-0.0011,-0.0003,-0.0003,-0.0003,-0.0003,0,0.0145,0.0153,0.0158,0.0164,0.0166,0.0172,0.0162,0.0159,0.0147,0.0138,0.0126,0.0094,0.0078,0.0064,0.0047,0.0043,0.0029,0.0012,-0.0002,0.0013,-0.0007,-0.0009,0.0,-0.0,-0.0001,-0.0002,0,0,0.0168,0.0173,0.0177,0.0188,0.0187,0.0194,0.0198,0.0201,0.021,0.0183,0.0189,0.0156,0.0137,0.0124,0.0096,0.0078,0.0066,0.0051,0.0049,0.0038,0.0024,0.0015,0.0011,0.0048,0.0048,0.0048,0.0008,0,0.0191,0.0216,0.0214,0.0243,0.0256,0.0243,0.0253,0.025,0.0243,0.0242,0.0204,0.0199,0.016,0.0155,0.0129,0.0085,0.0063,0.0079,0.0009,0.0007,-0.0001,0.001,0.0031,-0.0002,0.0006,0.0006,0.0006,0,0.022,0.0234,0.0265,0.0286,0.0291,0.0304,0.0323,0.0331,0.032,0.0312,0.0295,0.0265,0.0238,0.02,0.0133,0.0144,0.009,0.005,0.0047,0.0024,-0.0006,-0.0016,-0.0006,0.0003,0.0003,0.0003,0.0003,0,0.0251,0.0274,0.0304,0.0309,0.0326,0.0338,0.035,0.0353,0.0371,0.0362,0.0369,0.0325,0.0311,0.0238,0.0154,0.0143,0.0076,0.0049,-0.0012,-0.0014,-0.0016,-0.0017,-0.0002,-0.0002,-0.0002,-0.0002,-0.0002,0,0.0282,0.0306,0.032,0.0336,0.0373,0.0375,0.0414,0.0416,0.0431,0.0462,0.0412,0.042,0.032,0.0266,0.0176,0.0084,0.0092,-0.0002,-0.0023,-0.0001,-0.0,-0.0013,-0.0014,-0.0003,-0.0003,-0.0003,-0.0002,0,0.0312,0.032,0.0357,0.038,0.039,0.042,0.0459,0.049,0.0495,0.0534,0.0535,0.0498,0.0431,0.0322,0.0211,0.0125,0.0029,-0.001,0.0025,0.0009,-0.0055,-0.0054,-0.0081,-0.0081,-0.0082,-0.0082,-0.0083,0,0.0328,0.035,0.039,0.0418,0.043,0.047,0.0501,0.0521,0.056,0.0584,0.0609,0.0559,0.0529,0.0362,0.0211,0.0058,0.003,-0.003,-0.0049,-0.0045,-0.0063,-0.006,-0.0057,-0.0038,-0.0038,-0.0038,-0.0038,0,0.0362,0.0377,0.0407,0.0459,0.05,0.0545,0.0592,0.0628,0.0662,0.0689,0.0714,0.0692,0.0547,0.0402,0.02,0.0098,-0.0004,-0.0035,-0.0035,-0.0019,-0.0007,-0.0023,-0.0022,-0.0037,-0.0037,-0.0037,-0.0037,-0.0037,0.0389,0.0414,0.0455,0.0504,0.0552,0.0611,0.0648,0.0701,0.0758,0.0791,0.0781,0.0742,0.0595,0.0332,0.0172,0.0001,-0.0,-0.0072,-0.007,-0.007,-0.0056,-0.0045,-0.008,-0.008,-0.008,-0.0081,-0.0081,0,0.0417,0.0446,0.0496,0.0553,0.0604,0.0627,0.0702,0.0736,0.0797,0.0821,0.0827,0.0679,0.0531,0.0357,0.0108,-0.0042,-0.0048,-0.0091,-0.0067,-0.0066,-0.0065,-0.0051,-0.0074,-0.0074,-0.0075,-0.0075,0,0,0.0434,0.0479,0.05,0.058,0.0624,0.0687,0.0728,0.0778,0.0806,0.0813,0.0789,0.0754,0.0564,0.0382,0.0193,0.0056,0.0025,0.0029,0.004,0.0093,0.0095,-0.0036,-0.0011,0,0,0,0,0]}],[{"header":{"parameterUnit":"m.s-1","parameterCategory":2,"la1":30.2991,"la2":30.254,"lo1":-89.0895,"lo2":-89.0444,"dy":0.0017,"dx":0.0017,"nx":28,"ny":28,"refTime":"2023-09-18T09:00:00:Z","depth":"4","parameterNumber":2,"parameterNumberName":"U-component_of_CURRENTS"},"data":[0,0,0,0,0,0,0,0,0,0,0,0,0,0,0,0,0,0,0,0,0,0,0,0,0,0,0,0,0,0,0,0,0,0,0,0,0,0,0,0,0,0,0,0,0,0,0,0,0,0,0,0,0,0,0,0,0,0,0.1049,0.105,0,0.1074,0.1074,0.1074,0.1104,0.1105,0.1105,0.1106,0.1135,0.1136,0.1136,0,0,0,0,0,0,0,0,0,0,0,0,0,0.1027,0.1028,0.1049,0.105,0.105,0.1074,0.1074,0.1074,0.1104,0.1105,0.1105,0.1106,0.1135,0.1136,0.1136,0,0,0,0,0,0,0,0,0,0,0,0,0,0.1042,0.1028,0.1049,0.1069,0.1071,0.1074,0.1074,0.1074,0.1104,0.1105,0.1106,0.1106,0.1135,0.1135,0.1136,0.1121,0,0,0.1137,0.1137,0,0,0,0,0,0,0,0,0.1041,0.1042,0.1065,0.1067,0.107,0.1088,0.1077,0.109,0.1104,0.109,0.1106,0.1107,0.112,0.1122,0.1123,0.1122,0.1123,0.1137,0.1137,0.1137,0.1137,0,0,0,0,0,0,0,0.104,0.1041,0.1058,0.1066,0.1068,0.1076,0.1079,0.108,0.1099,0.1091,0.1094,0.1098,0.1121,0.1122,0.1123,0.1124,0.1137,0.1137,0.1138,0.1138,0.1191,0.1192,0,0,0,0,0,0,0.1038,0.104,0.1057,0.1059,0.1059,0.1076,0.1079,0.108,0.1099,0.1103,0.1097,0.1099,0.1121,0.1123,0.1125,0.1176,0.1137,0.1138,0.1138,0.119,0.1191,0.1192,0,0,0,0,0,0,0.1038,0.1039,0.1056,0.1051,0.1054,0.1075,0.1076,0.108,0.1106,0.1104,0.1108,0.1123,0.1122,0.1124,0.1152,0.1175,0.1138,0.1138,0.1188,0.119,0.1192,0.1235,0,0,0,0,0,0,0.1037,0.1039,0.1051,0.1051,0.1054,0.1073,0.1076,0.108,0.1106,0.111,0.1126,0.1128,0.1123,0.1151,0.1152,0.1175,0.1138,0.1187,0.1189,0.1191,0.1232,0.1238,0.1243,0,0,0,0,0,0.1036,0.1043,0.1051,0.1054,0.1066,0.1074,0.1077,0.1094,0.1107,0.112,0.1137,0.1129,0.1166,0.1152,0.1153,0.1176,0.1186,0.1189,0.1191,0.1229,0.1237,0.1243,0,0,0,0,0,0,0.1041,0.1047,0.1056,0.1066,0.1079,0.108,0.1097,0.1107,0.113,0.1142,0.1141,0.1144,0.1179,0.1172,0.1157,0.12,0.1176,0.1179,0.1205,0.1211,0.1217,0.1218,0.1139,0,0,0,0,0,0.1047,0.1057,0.1063,0.1075,0.1082,0.1095,0.1106,0.1117,0.1131,0.1144,0.1156,0.1171,0.1185,0.1195,0.1205,0.1223,0.1221,0.1241,0.1246,0.1251,0.1254,0.1273,0.128,0.1201,0.1201,0.1201,0,0,0.1054,0.1059,0.1066,0.1078,0.109,0.1101,0.1104,0.1127,0.1145,0.1142,0.1179,0.1192,0.1196,0.1223,0.1237,0.1223,0.1274,0.1254,0.1258,0.1258,0.1276,0.1284,0.1291,0.1203,0.1203,0.1203,0,0,0.1061,0.1077,0.1085,0.1096,0.1117,0.1124,0.1136,0.1153,0.1174,0.1204,0.1212,0.1241,0.1259,0.1268,0.1273,0.1313,0.1304,0.1322,0.1348,0.1367,0.1373,0.1379,0.139,0.1396,0.1322,0.1322,0.1322,0,0.1074,0.108,0.1091,0.11,0.1115,0.1136,0.115,0.1169,0.1197,0.1217,0.1225,0.1272,0.1279,0.1308,0.1327,0.1326,0.1334,0.1321,0.1374,0.1379,0.1384,0.1394,0.14,0.1324,0.1324,0.1324,0.1323,0,0.1078,0.1094,0.1102,0.1121,0.1138,0.1156,0.1178,0.1208,0.1238,0.1255,0.1305,0.132,0.1348,0.1358,0.1356,0.1398,0.1391,0.138,0.1355,0.1395,0.1402,0.1408,0.1328,0.1327,0.1326,0.1325,0,0,0.1075,0.11,0.1106,0.112,0.1153,0.1164,0.1202,0.1236,0.1269,0.1306,0.1346,0.138,0.14,0.1408,0.1416,0.1433,0.1479,0.1428,0.1428,0.1435,0.1522,0.1428,0.1424,0.148,0.1482,0.1483,0.1514,0,0.108,0.1099,0.1113,0.1143,0.1155,0.1189,0.1221,0.1259,0.1298,0.1343,0.1374,0.1417,0.1415,0.1443,0.1462,0.1477,0.1496,0.1471,0.1485,0.1486,0.1394,0.1428,0.1487,0.1518,0.1519,0.152,0.1521,0,0.1075,0.1091,0.1117,0.1155,0.1166,0.1193,0.1253,0.1285,0.1347,0.1382,0.143,0.1456,0.1501,0.1493,0.1537,0.1524,0.1531,0.1535,0.1536,0.1435,0.1401,0.147,0.1531,0.153,0.153,0.1529,0.1528,0,0.1057,0.1092,0.1116,0.1128,0.1175,0.1206,0.1242,0.1304,0.1335,0.1416,0.1448,0.1503,0.1539,0.156,0.1576,0.1567,0.1612,0.1595,0.1514,0.1507,0.1563,0.1557,0.1624,0.1624,0.1624,0.1623,0.1623,0,0.1041,0.1063,0.1115,0.1126,0.1164,0.1206,0.1257,0.1305,0.1371,0.1409,0.1471,0.1504,0.156,0.1589,0.1594,0.1569,0.1629,0.1522,0.151,0.1581,0.1577,0.1568,0.1561,0.1625,0.1624,0.1624,0.1624,0,0.1008,0.1042,0.1072,0.1132,0.1153,0.1185,0.1254,0.1288,0.1362,0.1415,0.1444,0.1519,0.1559,0.1591,0.1629,0.1581,0.1574,0.1551,0.163,0.1621,0.1453,0.1448,0.1459,0.1456,0.1453,0.1451,0.1449,0,0.0989,0.1002,0.1068,0.1088,0.1119,0.1171,0.1204,0.1279,0.1311,0.141,0.1426,0.1497,0.1537,0.1502,0.1553,0.1551,0.1532,0.1514,0.1476,0.145,0.1437,0.1436,0.1435,0.1445,0.1445,0.1444,0.1443,0,0.0952,0.0988,0.1014,0.1054,0.1093,0.1121,0.1177,0.1185,0.1272,0.1349,0.137,0.1387,0.1425,0.1445,0.1453,0.145,0.1517,0.1487,0.1492,0.1456,0.1433,0.1423,0.1425,0.1434,0.1436,0.1436,0.1437,0,0.0932,0.0941,0.0981,0.1006,0.1052,0.1059,0.109,0.112,0.1151,0.1256,0.1266,0.134,0.1416,0.1394,0.1405,0.1392,0.1368,0.1314,0.1327,0.1338,0.1283,0.1235,0.1167,0,0,0,0,0,0.0903,0.0902,0.0926,0.0944,0.0988,0.101,0.1065,0.1098,0.1179,0.1161,0.1205,0.1236,0.1251,0.1289,0.125,0.1357,0.1378,0.1306,0.1323,0.1384,0.1395,0.1341,0,0,0,0,0,0,0.088,0.0903,0.0903,0.0887,0.0891,0.0923,0.0954,0.1008,0.0994,0.1084,0.1094,0.1165,0.1194,0.1263,0.1229,0.1241,0.1225,0.1355,0.1352,0.1379,0.1388,0.1396,0.1344,0,0,0,0,0]},{"header":{"parameterUnit":"m.s-1","parameterCategory":2,"la1":30.2991,"la2":30.254,"lo1":-89.0895,"lo2":-89.0444,"dy":0.0017,"dx":0.0017,"nx":28,"ny":28,"refTime":"2023-09-18T09:00:00:Z","depth":"4","parameterNumber":3,"parameterNumberName":"V-component_of_CURRENTS"},"data":[0,0,0,0,0,0,0,0,0,0,0,0,0,0,0,0,0,0,0,0,0,0,0,0,0,0,0,0,0,0,0,0,0,0,0,0,0,0,0,0,0,0,0,0,0,0,0,0,0,0,0,0,0,0,0,0,0,0,0.0093,0.0092,0,0.0083,0.0083,0.0083,0.0079,0.0079,0.0079,0.0079,0.0057,0.0057,0.0056,0,0,0,0,0,0,0,0,0,0,0,0,0,0.0088,0.0089,0.0093,0.0092,0.0092,0.0083,0.0083,0.0083,0.0079,0.0079,0.0079,0.0079,0.0057,0.0057,0.0056,0,0,0,0,0,0,0,0,0,0,0,0,0,0.0085,0.0089,0.0093,0.0089,0.0089,0.0083,0.0083,0.0083,0.0079,0.0079,0.0079,0.0079,0.0058,0.0057,0.0056,0.0049,0,0,0.0053,0.0053,0,0,0,0,0,0,0,0,0.0086,0.0086,0.009,0.009,0.0089,0.0082,0.0074,0.0071,0.0079,0.0082,0.0079,0.0079,0.0065,0.0063,0.0061,0.0048,0.0047,0.0053,0.0052,0.0052,0.0052,0,0,0,0,0,0,0,0.0086,0.0086,0.0089,0.009,0.0089,0.0082,0.0082,0.0073,0.0073,0.0082,0.0082,0.0081,0.0064,0.0062,0.006,0.0047,0.0053,0.0052,0.0052,0.0051,0.0027,0.0027,0,0,0,0,0,0,0.0089,0.0086,0.0089,0.0088,0.0088,0.0082,0.0082,0.0084,0.0073,0.0072,0.0081,0.0081,0.0063,0.0062,0.006,0.0057,0.0052,0.0051,0.0051,0.0027,0.0027,0.0027,0,0,0,0,0,0,0.0089,0.0089,0.0089,0.0087,0.0087,0.0082,0.0085,0.0084,0.0084,0.0073,0.0071,0.0082,0.0063,0.0061,0.0056,0.0056,0.0051,0.005,0.0027,0.0027,0.0027,0.0048,0,0,0,0,0,0,0.0089,0.0089,0.0092,0.0087,0.0087,0.0089,0.0085,0.0084,0.0084,0.0083,0.0073,0.0071,0.0063,0.0058,0.0055,0.0055,0.0049,0.0027,0.0027,0.0027,0.0048,0.0049,0.005,0,0,0,0,0,0.0088,0.0094,0.0093,0.0093,0.0091,0.009,0.0089,0.0085,0.0084,0.0085,0.0079,0.0072,0.0055,0.0057,0.0054,0.0053,0.0028,0.0027,0.0027,0.0047,0.0049,0.005,0,0,0,0,0,0,0.0094,0.0094,0.0092,0.0098,0.0095,0.0089,0.0091,0.0087,0.0084,0.0084,0.0073,0.007,0.0065,0.0056,0.0059,0.0045,0.0039,0.0038,0.0055,0.0056,0.0057,0.0065,0.0049,0,0,0,0,0,0.0097,0.0102,0.0098,0.0103,0.0102,0.0096,0.0096,0.0094,0.0089,0.0088,0.008,0.007,0.0061,0.0057,0.0048,0.0042,0.0028,0.0038,0.0039,0.004,0.0045,0.0022,0.0022,0.0026,0.0026,0.0026,0,0,0.0101,0.0102,0.0104,0.0105,0.0102,0.0106,0.0096,0.0098,0.01,0.0085,0.0086,0.0075,0.0061,0.0055,0.0051,0.0048,0.0031,0.004,0.0041,0.0045,0.0022,0.0022,0.0021,0.0026,0.0026,0.0026,0,0,0.0111,0.0111,0.0119,0.0117,0.0116,0.0114,0.0116,0.0111,0.0108,0.0106,0.0095,0.0085,0.0073,0.0062,0.0055,0.0056,0.0038,0.0051,0.0063,0.0041,0.0041,0.004,0.002,0.0018,0.0051,0.0051,0.0051,0,0.0116,0.0125,0.012,0.0125,0.0129,0.012,0.0128,0.0123,0.0117,0.0116,0.011,0.009,0.0077,0.0067,0.0067,0.0059,0.0044,0.0061,0.0043,0.0042,0.0042,0.0021,0.0018,0.0052,0.0051,0.0051,0.0051,0,0.0129,0.0137,0.0141,0.0148,0.015,0.0156,0.015,0.0148,0.0144,0.0139,0.0129,0.0109,0.0098,0.0087,0.0079,0.0065,0.0057,0.0048,0.0042,0.0043,0.0021,0.0017,0.0053,0.0053,0.0052,0.0052,0,0,0.0142,0.015,0.0153,0.016,0.0163,0.0168,0.017,0.0171,0.0175,0.016,0.0159,0.0138,0.0126,0.0117,0.0098,0.0077,0.0056,0.0063,0.0061,0.0047,0.0009,0.0008,0.0004,0.0045,0.0045,0.0044,-0.0004,0,0.0156,0.0172,0.0174,0.0193,0.0201,0.0196,0.0201,0.0199,0.0194,0.019,0.0163,0.0157,0.0137,0.0131,0.0107,0.0071,0.0048,0.007,0.0008,0.0006,0.0008,0.0001,0.0043,-0.0007,-0.0008,-0.0008,-0.0009,0,0.0171,0.0181,0.0202,0.0217,0.0221,0.0231,0.0239,0.0244,0.0232,0.0226,0.0212,0.0193,0.0164,0.0145,0.0083,0.0099,0.0058,0.0025,0.0022,0.0013,-0.0001,-0.0008,-0.0015,-0.0015,-0.0014,-0.0014,-0.0014,0,0.0185,0.0203,0.0222,0.0227,0.024,0.0249,0.0258,0.0256,0.0265,0.0252,0.0254,0.0216,0.0201,0.0145,0.0083,0.0082,0.0011,-0.0001,-0.0042,-0.0043,-0.0036,-0.0035,-0.0048,-0.0048,-0.0048,-0.0048,-0.0048,0,0.02,0.0216,0.0231,0.0242,0.0265,0.0269,0.0292,0.0291,0.0296,0.0311,0.0278,0.0275,0.02,0.0153,0.009,0.0017,0.0015,-0.004,-0.0055,-0.0027,-0.0024,-0.0039,-0.0038,-0.005,-0.0049,-0.0049,-0.0049,0,0.021,0.022,0.0245,0.0265,0.0273,0.0292,0.0319,0.0336,0.0337,0.0353,0.0352,0.0318,0.0258,0.0178,0.0086,0.0032,-0.0043,-0.007,-0.0031,-0.0043,-0.0086,-0.0082,-0.0123,-0.0123,-0.0124,-0.0124,-0.0124,0,0.0216,0.023,0.0263,0.0282,0.0294,0.0321,0.0341,0.0354,0.0374,0.0381,0.039,0.0343,0.0308,0.018,0.0092,-0.0033,-0.0052,-0.0094,-0.0094,-0.0083,-0.0094,-0.009,-0.0086,-0.0125,-0.0125,-0.0125,-0.0125,0,0.0227,0.0242,0.0262,0.0301,0.033,0.036,0.0391,0.0406,0.0424,0.0427,0.042,0.0358,0.0289,0.0187,0.0089,0.0,-0.0068,-0.0098,-0.0098,-0.0099,-0.0086,-0.0095,-0.0091,-0.0126,-0.0126,-0.0126,-0.0126,0,0.0238,0.0252,0.0283,0.0317,0.0355,0.0388,0.0403,0.0425,0.0441,0.0447,0.0445,0.0374,0.0334,0.0204,0.0117,0.0027,0.0,-0.0034,-0.0038,-0.0037,0.0001,0.0031,0.0013,0,0,0,0,0,0.0245,0.0262,0.0296,0.0332,0.0371,0.0394,0.0431,0.0444,0.0459,0.046,0.0453,0.0391,0.0268,0.0218,0.0127,0.0099,-0.0023,-0.0012,-0.0066,-0.0133,-0.0132,-0.0102,0,0,0,0,0,0,0.0249,0.0279,0.0293,0.0339,0.0366,0.0409,0.0435,0.0448,0.0445,0.045,0.0388,0.0364,0.0243,0.032,0.0125,0.0099,0.005,-0.0067,-0.0069,-0.0134,-0.0133,-0.0132,-0.01,0,0,0,0,0]}]]